Weather History for Needles, CA

Change the Weather History Date:

Tuesday, September 4, 2012

  Actual Average Record
Temperature  
Mean Temperature 96 °F -  
Max Temperature 105 °F 105 °F 114 °F (2011)
Min Temperature 88 °F 78 °F 65 °F (1961)
Cooling Degree Days 31    
Growing Degree Days 46 (Base 50)    
Moisture  
Dew Point 65 °F    
Average Humidity 38    
Maximum Humidity 50    
Minimum Humidity 27    
Precipitation  
Precipitation 0.00 in - - ()
Sea Level Pressure  
Sea Level Pressure 29.81 in    
Wind  
Wind Speed 8 mph (SW)    
Max Wind Speed 14 mph    
Max Gust Speed 20 mph    
Visibility 10 miles    
Events Thunderstorm    
Averages and records for this station are not official NWS values.
T = Trace of Precipitation, MM = Missing Value Source: NWS Daily Summary

Daily Weather History Graph

Daily Weather History Graph

Search for Another Location

Airport:

Trip Planner

Search our weather history database for the weather conditions in past years. The results will help you decide how hot, cold, wet, or windy it might be!

Date:

Astronomy

Sep. 04, 2012 Rise Set
Actual Time 6:13 AM PDT 7:00 PM PDT
Civil Twilight 5:48 AM PDT 7:25 PM PDT
Nautical Twilight 5:18 AM PDT 7:55 PM PDT
Astronomical Twilight 4:46 AM PDT 8:26 PM PDT
Moon 9:09 PM PDT (9/4) 10:11 AM PDT (9/4)
Length of Visible Light 13h 37m
Length of Day
12h 46m
Waning Gibbous, 83% of the Moon is Illuminated
Sep 4
Waning Gibbous
Sep 8
Last Quarter
Sep 15
New
Sep 22
First Quarter
Sep 29
Full

Hourly Weather History & Observations

Time (PDT) Temp. Heat Index Dew Point Humidity Pressure Visibility Wind Dir Wind Speed Gust Speed Precip Events Conditions
12:56 AM 93.0 °F 94.2 °F 63.0 °F 37% 29.80 in 10.0 mi WSW 6.9 mph - N/A   Clear
1:56 AM 91.0 °F 91.5 °F 62.1 °F 38% 29.80 in 10.0 mi Calm Calm - N/A   Clear
2:56 AM 91.0 °F 93.8 °F 66.0 °F 44% 29.80 in 10.0 mi SSW 13.8 mph - N/A   Clear
3:56 AM 90.0 °F 92.8 °F 66.9 °F 46% 29.80 in 10.0 mi SW 10.4 mph - N/A   Clear
4:56 AM 89.1 °F 92.1 °F 66.9 °F 48% 29.81 in 10.0 mi SW 12.7 mph - N/A   Clear
5:56 AM 88.0 °F 90.7 °F 66.9 °F 49% 29.83 in 10.0 mi SW 11.5 mph - N/A   Clear
6:56 AM 89.1 °F 92.9 °F 68.0 °F 50% 29.85 in 10.0 mi SW 9.2 mph - N/A   Clear
7:56 AM 90.0 °F 92.8 °F 66.9 °F 46% 29.87 in 10.0 mi SSW 3.5 mph - N/A   Clear
8:56 AM 91.9 °F 95.9 °F 68.0 °F 45% 29.87 in 10.0 mi SW 6.9 mph - N/A   Clear
9:56 AM 95.0 °F 99.5 °F 68.0 °F 41% 29.88 in 10.0 mi SSW 9.2 mph 19.6 mph N/A   Clear
10:56 AM 96.1 °F 99.3 °F 66.0 °F 37% 29.86 in 10.0 mi SW 8.1 mph - N/A   Clear
11:56 AM 99.0 °F 102.9 °F 66.0 °F 34% 29.84 in 10.0 mi Variable 4.6 mph - N/A   Clear
12:56 PM 100.9 °F 105.3 °F 66.0 °F 32% 29.82 in 10.0 mi SW 10.4 mph 19.6 mph N/A   Clear
1:56 PM 102.0 °F 105.2 °F 64.0 °F 29% 29.79 in 10.0 mi Variable 6.9 mph - N/A   Clear
2:56 PM 102.9 °F 106.1 °F 64.0 °F 28% 29.76 in 10.0 mi SSW 10.4 mph - N/A   Clear
3:56 PM 104.0 °F 108.1 °F 64.9 °F 28% 29.73 in 10.0 mi South 12.7 mph 18.4 mph N/A   Clear
4:46 PM 104.0 °F 107.4 °F 64.4 °F 27% 29.83 in 10.0 mi SSW 11.5 mph - N/A Thunderstorm Partly Cloudy
4:56 PM 104.0 °F 107.4 °F 64.0 °F 27% 29.72 in 10.0 mi SW 8.1 mph - N/A Thunderstorm Clear
11:56 PM 91.0 °F 91.5 °F 62.1 °F 38% 29.82 in - SW 6.9 mph - N/A   Unknown